"TOA5","Alcova_14W","CR1000","32863","CR1000.Std.19","CPU:PATHFINDER10.CR1","37160","Table201"
"TIMESTAMP","RECORD","Ta_C_Max","Ta_C_Min","WSPD_1minArray_Max","WSPD_1minArray_TMx","VP_Avg","VP_DEF_Avg","Rain_Tot","WSPD_5sec_Max","WSPD_5sec_TMx","BattVolts_Min"
"TS","RN","","","","","","","","","",""
"","","Max","Min","Max","TMx","Avg","Avg","Tot","Max","TMx","Min"
"2013-10-11 00:00:00",1172,14.53,0.088,7.912,"2013-10-10 12:42:05",0.763,0.206,1.016,9.23,"2013-10-10 12:49:20",12.15
"2013-10-12 00:00:00",1173,9.54,-1.467,9.27,"2013-10-11 07:39:05",0.646,0.23,5.842,12.11,"2013-10-11 07:38:30",12.16
"2013-10-13 00:00:00",1174,11.96,-4.365,7.206,"2013-10-12 12:56:05",0.532,0.29,0,8.43,"2013-10-12 12:55:30",12.12
"2013-10-14 00:00:00",1175,15.65,-0.726,7.512,"2013-10-13 19:27:05",0.74,0.264,1.27,9.23,"2013-10-13 19:24:45",12.14
"2013-10-15 00:00:00",1176,5.014,-2.682,8.36,"2013-10-14 11:28:05",0.603,0.053,4.826,9.87,"2013-10-14 11:39:40",12.16
"2013-10-16 00:00:00",1177,1.515,-3.755,3.637,"2013-10-15 17:05:05",0.474,0.074,1.016,4.116,"2013-10-15 16:08:00",12.13
"2013-10-17 00:00:00",1178,8.85,-6.866,9.08,"2013-10-16 15:45:05",0.479,0.21,0,10.99,"2013-10-16 12:37:05",12.08
"2013-10-18 00:00:00",1179,6.772,-2.477,4.276,"2013-10-17 17:05:05",0.559,0.088,0.762,4.756,"2013-10-17 14:25:05",12.13
"2013-10-19 00:00:00",1180,6.493,-3.417,7.499,"2013-10-18 08:46:05",0.414,0.232,0,9.87,"2013-10-18 13:38:05",12.12
"2013-10-20 00:00:00",1181,14.64,-3.223,7.765,"2013-10-19 14:10:05",0.47,0.443,0,8.75,"2013-10-19 14:09:10",12.13
"2013-10-21 00:00:00",1182,9.6,-3.422,9.12,"2013-10-20 11:19:05",0.564,0.199,0.508,10.83,"2013-10-20 11:11:40",12.15
"2013-10-22 00:00:00",1183,13.57,-5.315,8.15,"2013-10-21 13:55:05",0.498,0.385,0,9.23,"2013-10-21 12:50:15",12.1
"2013-10-23 00:00:00",1184,16.6,-3.555,6.926,"2013-10-22 14:13:05",0.535,0.416,0,8.27,"2013-10-22 14:02:30",12.11
"2013-10-24 00:00:00",1185,18.75,-4.5,3.81,"2013-10-23 17:52:05",0.535,0.457,0,4.276,"2013-10-23 12:51:30",12.1
"2013-10-25 00:00:00",1186,18.89,-4.704,3.57,"2013-10-24 17:28:05",0.586,0.306,0,4.756,"2013-10-24 17:27:50",12.1
"2013-10-26 00:00:00",1187,20.78,-5.518,5.874,"2013-10-25 12:55:05",0.502,0.571,0,6.993,"2013-10-25 14:41:35",12.09
"2013-10-27 00:00:00",1188,17.87,-4.568,7.858,"2013-10-26 15:08:05",0.495,0.482,0,9.55,"2013-10-26 15:07:55",12.1
"2013-10-28 00:00:00",1189,17.14,-5.315,10.68,"2013-10-27 14:13:05",0.421,0.618,0,12.27,"2013-10-27 12:14:50",12.09
"2013-10-29 00:00:00",1190,3.466,-4.58,11.03,"2013-10-28 06:27:05",0.535,0.039,2.032,13.38,"2013-10-28 06:40:00",12.14
"2013-10-30 00:00:00",1191,7.706,-4.435,7.792,"2013-10-29 00:51:05",0.494,0.122,0,8.91,"2013-10-29 00:50:40",12.11
"2013-10-31 00:00:00",1192,6.704,-3.155,9.4,"2013-10-30 13:19:05",0.493,0.188,0,10.67,"2013-10-30 14:12:50",12.12
"2013-11-01 00:00:00",1193,10.94,-5.247,9.16,"2013-10-31 13:04:05",0.469,0.319,0,11.15,"2013-10-31 12:27:50",12.1
"2013-11-02 00:00:00",1194,9.25,-5.315,6.766,"2013-11-01 15:32:05",0.417,0.334,0,7.792,"2013-11-01 10:27:00",12.15
"2013-11-03 00:00:00",1195,14.37,-6.061,12.19,"2013-11-02 14:55:05",0.409,0.575,0,15.46,"2013-11-02 15:32:40",12.1
"2013-11-04 00:00:00",1196,9.6,-6.402,11.05,"2013-11-03 14:29:05",0.351,0.476,0,12.59,"2013-11-03 14:28:55",12.19
"2013-11-05 00:00:00",1197,3.126,-11.47,8.92,"2013-11-04 12:03:05",0.265,0.228,0,10.51,"2013-11-04 11:57:05",12.04
"2013-11-06 00:00:00",1198,2.582,-10.79,8.9,"2013-11-05 15:16:05",0.242,0.248,0,10.35,"2013-11-05 14:27:35",12.05
"2013-11-07 00:00:00",1199,9.01,-8.3,9.34,"2013-11-06 15:14:05",0.28,0.351,0,11.15,"2013-11-06 14:12:50",12.11
"2013-11-08 00:00:00",1200,8.73,-8.9,9.34,"2013-11-07 11:56:05",0.408,0.309,0,10.51,"2013-11-07 11:29:20",12.06
"2013-11-09 00:00:00",1201,12.15,0.958,15.87,"2013-11-08 12:06:05",0.41,0.618,0,17.7,"2013-11-08 12:05:50",12.18
"2013-11-10 00:00:00",1202,13.56,-6.265,7.232,"2013-11-09 14:37:05",0.416,0.376,0,8.27,"2013-11-09 14:32:50",12.11
"2013-11-11 00:00:00",1203,15.92,-7.21,7.632,"2013-11-10 13:58:05",0.415,0.456,0,9.23,"2013-11-10 13:34:45",12.08
"2013-11-12 00:00:00",1204,10.44,-6.668,7.019,"2013-11-11 16:20:05",0.449,0.217,0,8.11,"2013-11-11 16:12:40",12.09
"2013-11-13 00:00:00",1205,14.31,-9.57,8.64,"2013-11-12 14:26:05",0.378,0.343,0,9.87,"2013-11-12 14:25:10",12.06
"2013-11-14 00:00:00",1206,11.22,-6.531,6.447,"2013-11-13 12:45:05",0.413,0.383,0,7.952,"2013-11-13 12:44:30",12.08
"2013-11-15 00:00:00",1207,9.53,-6.198,8.54,"2013-11-14 14:27:05",0.424,0.348,0,10.51,"2013-11-14 14:36:05",12.09
"2013-11-16 00:00:00",1208,9.66,-3.766,10.93,"2013-11-15 13:02:05",0.38,0.343,0,13.38,"2013-11-15 13:00:40",12.12
"2013-11-17 00:00:00",1209,2.923,-3.155,15.87,"2013-11-16 13:23:05",0.36,0.249,0,20.42,"2013-11-16 07:43:05",12.13
"2013-11-18 00:00:00",1210,4.002,-6.873,13.86,"2013-11-17 14:20:05",0.266,0.324,0,16.74,"2013-11-17 13:51:35",12.08
"2013-11-19 00:00:00",1211,11.28,-4.377,12.11,"2013-11-18 11:34:05",0.382,0.42,0,13.86,"2013-11-18 11:36:30",12.13
"2013-11-20 00:00:00",1212,12.43,-4.512,14.16,"2013-11-19 12:35:05",0.485,0.454,0,17.06,"2013-11-19 12:34:40",12.18
"2013-11-21 00:00:00",1213,10.95,-12.56,13.26,"2013-11-20 18:43:05",0.388,0.24,0,15.46,"2013-11-20 18:21:00",12.08
"2013-11-22 00:00:00",1214,-6.188,-27.82,7.299,"2013-11-21 00:18:05",0.162,0.049,0.508,8.43,"2013-11-21 00:20:40",12.01
"2013-11-23 00:00:00",1215,-6.324,-28.84,2.292,"2013-11-22 17:34:05",0.109,0.03,0,2.518,"2013-11-22 01:19:45",9.1
"2013-11-24 00:00:00",1216,-0.563,-27.95,2.691,"2013-11-23 18:26:05",0.109,0.065,0,2.838,"2013-11-23 18:12:15",9.22
"2013-11-25 00:00:00",1217,5.982,-21.3,3.171,"2013-11-24 18:40:05",0.188,0.107,0,3.317,"2013-11-24 18:38:00",9.12
"2013-11-26 00:00:00",1218,8.62,-14.18,2.425,"2013-11-25 20:23:05",0.32,0.102,0,2.678,"2013-11-25 20:22:35",12.03
"2013-11-27 00:00:00",1219,6.773,-14.99,3.61,"2013-11-26 15:48:05",0.319,0.123,0,4.116,"2013-11-26 15:47:50",9.12
"2013-11-28 00:00:00",1220,8.18,-10.79,5.501,"2013-11-27 12:47:05",0.385,0.181,0,6.194,"2013-11-27 12:45:55",11.44
"2013-11-29 00:00:00",1221,10.99,-10.18,2.958,"2013-11-28 22:39:05",0.382,0.193,0,3.317,"2013-11-28 22:31:25",9.68
"2013-11-30 00:00:00",1222,8.18,-7.753,8.48,"2013-11-29 12:16:05",0.409,0.249,0,9.87,"2013-11-29 12:15:00",9.13
"2013-12-01 00:00:00",1223,7.042,-5.179,8.68,"2013-11-30 14:35:05",0.423,0.255,0,9.87,"2013-11-30 11:46:20",9.42
"2013-12-02 00:00:00",1224,5.959,-5.315,14.45,"2013-12-01 18:15:05",0.478,0.237,0,17.38,"2013-12-01 17:16:45",10.11
"2013-12-03 00:00:00",1225,8.65,2.109,15.18,"2013-12-02 11:37:05",0.498,0.374,0,18.82,"2013-12-02 11:36:50",9.12
"2013-12-04 00:00:00",1226,3.127,-17.23,10.38,"2013-12-03 05:58:05",0.251,0.066,0,12.91,"2013-12-03 06:56:05",9.12
"2013-12-05 00:00:00",1227,0,-31.62,4.982,"2013-12-04 14:53:05",0.076,0.043,0,5.555,"2013-12-04 14:52:10",0
"2013-12-06 00:00:00",1228,-10.05,-33.8,3.291,"2013-12-05 20:10:05",0.056,0.034,0,3.797,"2013-12-05 20:10:55",12.24
"2013-12-07 00:00:00",1229,-11.05,-30.53,5.062,"2013-12-06 17:11:05",0.06,0.032,0,5.714,"2013-12-06 16:54:50",12.28
"2013-12-08 00:00:00",1230,-14.97,-31.56,5.195,"2013-12-07 16:15:05",0.068,0.022,0,5.874,"2013-12-07 17:32:30",12.26
"2013-12-09 00:00:00",1231,-6.853,-29.38,2.585,"2013-12-08 15:05:05",0.099,0.051,0,2.998,"2013-12-08 15:03:05",12.34
"2013-12-10 00:00:00",1232,-11.06,-31.42,12.32,"2013-12-09 20:15:05",0.113,0.054,0,14.34,"2013-12-09 20:12:40",12.31
"2013-12-11 00:00:00",1233,-4.704,-20.28,13.61,"2013-12-10 10:24:05",0.193,0.084,0,16.42,"2013-12-10 07:05:30",12.5
"2013-12-12 00:00:00",1234,1.88,-22.85,10.06,"2013-12-11 14:09:05",0.205,0.129,0,11.95,"2013-12-11 14:08:45",12.43
"2013-12-13 00:00:00",1235,2.598,-7.21,11.32,"2013-12-12 16:40:05",0.27,0.241,0,13.22,"2013-12-12 16:39:05",12.61
"2013-12-14 00:00:00",1236,2.394,-13.31,6.1,"2013-12-13 00:38:05",0.266,0.128,0,8.11,"2013-12-13 00:37:50",12.56
"2013-12-15 00:00:00",1237,1.24,-15,8.79,"2013-12-14 13:52:05",0.309,0.133,0,10.51,"2013-12-14 13:29:05",12.56
"2013-12-16 00:00:00",1238,4.746,-8.56,8.55,"2013-12-15 19:50:05",0.354,0.222,0,11.47,"2013-12-15 19:49:00",12.6
"2013-12-17 00:00:00",1239,9.94,-8.7,9.07,"2013-12-16 12:34:05",0.34,0.268,0,11.15,"2013-12-16 12:45:55",12.61
"2013-12-18 00:00:00",1240,6.726,-10.32,9.44,"2013-12-17 12:57:05",0.326,0.301,0,10.67,"2013-12-17 12:56:20",12.58
"2013-12-19 00:00:00",1241,7.848,-0.115,10.38,"2013-12-18 13:01:05",0.354,0.455,0,13.38,"2013-12-18 12:39:40",12.69
"2013-12-20 00:00:00",1242,3.277,-17.03,10.47,"2013-12-19 13:40:05",0.292,0.069,6.096,12.27,"2013-12-19 13:52:55",12.59
"2013-12-21 00:00:00",1243,-7.136,-23.27,7.206,"2013-12-20 22:59:05",0.147,0.05,0.508,8.11,"2013-12-20 22:59:40",12.47
"2013-12-22 00:00:00",1244,-4.975,-10.51,9.91,"2013-12-21 01:12:05",0.276,0.073,0,11.79,"2013-12-21 01:12:05",12.55
"2013-12-23 00:00:00",1245,0.67,-24.62,8.04,"2013-12-22 15:09:05",0.185,0.048,0,8.75,"2013-12-22 15:08:15",12.44
"2013-12-24 00:00:00",1246,1.92,-21.7,12.65,"2013-12-23 23:46:05",0.34,0.07,0,14.82,"2013-12-23 23:57:00",12.48
"2013-12-25 00:00:00",1247,1.784,-17.09,16.01,"2013-12-24 04:26:05",0.374,0.09,0,18.98,"2013-12-24 04:53:20",12.61
"2013-12-26 00:00:00",1248,-0.17,-22.11,6.66,"2013-12-25 21:47:05",0.168,0.078,0,7.792,"2013-12-25 21:56:10",12.45
"2013-12-27 00:00:00",1249,6.044,-14.32,5.874,"2013-12-26 01:59:05",0.239,0.126,0,6.993,"2013-12-26 03:52:25",12.54
"2013-12-28 00:00:00",1250,9.96,-13.98,3.85,"2013-12-27 23:12:05",0.261,0.122,0,4.116,"2013-12-27 18:00:50",12.54
"2013-12-29 00:00:00",1251,1.52,-16.14,10.75,"2013-12-28 12:08:05",0.301,0.108,0,12.11,"2013-12-28 12:28:50",12.59
"2013-12-30 00:00:00",1252,-4.5,-25.44,10.6,"2013-12-29 18:18:05",0.189,0.055,0,12.11,"2013-12-29 18:58:15",12.43
"2013-12-31 00:00:00",1253,7.008,-19.47,8.76,"2013-12-30 17:42:05",0.246,0.143,0,9.71,"2013-12-30 17:38:35",12.45
"2014-01-01 00:00:00",1254,1.976,-5.654,12.65,"2013-12-31 16:30:05",0.417,0.163,0,14.02,"2013-12-31 16:29:00",12.64
"2014-01-02 00:00:00",1255,-0.794,-22.32,9.71,"2014-01-01 10:09:05",0.332,0.034,2.54,10.99,"2014-01-01 10:08:30",12.55
"2014-01-03 00:00:00",1256,4.853,-24.22,7.965,"2014-01-02 14:40:05",0.233,0.084,0,9.55,"2014-01-02 14:47:20",12.43
"2014-01-04 00:00:00",1257,3.202,-13.71,16.15,"2014-01-03 14:39:05",0.4,0.142,0.508,18.18,"2014-01-03 14:39:30",12.59
"2014-01-05 00:00:00",1258,-4.898,-15.47,8.31,"2014-01-04 00:24:05",0.226,0.045,0,9.23,"2014-01-04 00:10:30",12.56
"2014-01-06 00:00:00",1259,-12.75,-30.4,8.76,"2014-01-05 14:38:05",0.104,0.043,0,10.19,"2014-01-05 14:37:30",12.42
"2014-01-07 00:00:00",1260,-3.818,-31.01,10.97,"2014-01-06 21:51:05",0.138,0.067,0,12.91,"2014-01-06 21:50:35",12.27
"2014-01-08 00:00:00",1261,-0.101,-9.51,8.23,"2014-01-07 01:12:05",0.31,0.133,0,9.23,"2014-01-07 04:40:25",12.56
"2014-01-09 00:00:00",1262,-0.182,-17.37,5.608,"2014-01-08 15:11:05",0.256,0.073,0,6.673,"2014-01-08 15:10:15",12.5
"2014-01-10 00:00:00",1263,0.699,-7.07,12.27,"2014-01-09 08:21:05",0.378,0.115,0,13.86,"2014-01-09 08:17:00",12.6
"2014-01-11 00:00:00",1264,6.527,-17.43,11.31,"2014-01-10 12:26:05",0.26,0.13,0,12.59,"2014-01-10 12:25:20",12.54
"2014-01-12 00:00:00",1265,5.628,-10.66,17.25,"2014-01-11 12:43:05",0.443,0.181,0,19.62,"2014-01-11 12:38:45",12.58
"2014-01-13 00:00:00",1266,3.13,-10.93,13.2,"2014-01-12 00:02:05",0.328,0.188,0,15.3,"2014-01-12 00:01:10",12.66
"2014-01-14 00:00:00",1267,4.881,-11.06,17.49,"2014-01-13 15:09:05",0.345,0.228,0,21.37,"2014-01-13 15:08:40",12.61
"2014-01-15 00:00:00",1268,3.683,-14.31,8.7,"2014-01-14 00:38:05",0.323,0.09,0,9.55,"2014-01-14 00:37:05",12.63
"2014-01-16 00:00:00",1269,3.601,-13.97,10.39,"2014-01-15 12:06:05",0.335,0.194,0,12.27,"2014-01-15 10:25:30",12.54
"2014-01-17 00:00:00",1270,2.517,-12.01,6.007,"2014-01-16 04:40:05",0.301,0.149,0,7.472,"2014-01-16 04:39:50",12.61
"2014-01-18 00:00:00",1271,7.929,-16.41,6.207,"2014-01-17 19:43:05",0.287,0.186,0,6.833,"2014-01-17 19:42:10",12.52
"2014-01-19 00:00:00",1272,7.442,-9.84,7.179,"2014-01-18 23:13:05",0.323,0.198,0,8.43,"2014-01-18 23:12:35",12.6
"2014-01-20 00:00:00",1273,5.694,-7.005,9.28,"2014-01-19 12:04:05",0.338,0.238,0,10.99,"2014-01-19 12:03:45",12.63
"2014-01-21 00:00:00",1274,4.904,-13.23,6.886,"2014-01-20 03:59:05",0.326,0.13,0,7.792,"2014-01-20 02:15:30",12.64
"2014-01-22 00:00:00",1275,6.189,-14.25,9.18,"2014-01-21 10:05:05",0.286,0.188,0,10.19,"2014-01-21 10:01:40",12.58
"2014-01-23 00:00:00",1276,0.096,-15.06,9.31,"2014-01-22 18:38:05",0.3,0.054,0,10.67,"2014-01-22 18:35:05",12.55
"2014-01-24 00:00:00",1277,-2.747,-19.4,6.034,"2014-01-23 00:03:05",0.2,0.068,0,6.833,"2014-01-23 00:06:50",12.57
"2014-01-25 00:00:00",1278,2.787,-17.22,7.419,"2014-01-24 13:18:05",0.29,0.16,0,8.43,"2014-01-24 13:17:10",12.5
"2014-01-26 00:00:00",1279,5.281,-12.96,5.754,"2014-01-25 22:15:05",0.322,0.18,0,8.11,"2014-01-25 23:31:00",12.58
"2014-01-27 00:00:00",1280,6.652,-13.23,10.57,"2014-01-26 15:24:05",0.298,0.114,0,12.59,"2014-01-26 16:00:10",12.58
"2014-01-28 00:00:00",1281,-1.1,-22.04,6.114,"2014-01-27 13:47:05",0.18,0.092,0,6.833,"2014-01-27 13:46:10",12.52
"2014-01-29 00:00:00",1282,-3.223,-26.73,8.96,"2014-01-28 14:05:05",0.137,0.112,0,10.19,"2014-01-28 14:04:35",12.38
"2014-01-30 00:00:00",1283,4.482,-12.76,15.69,"2014-01-29 13:37:05",0.39,0.154,0,18.34,"2014-01-29 15:03:40",12.57
"2014-01-31 00:00:00",1284,4.09,-11.4,10.59,"2014-01-30 00:12:05",0.341,0.11,0,12.59,"2014-01-30 00:09:00",12.65
"2014-02-01 00:00:00",1285,3.889,-12.22,4.289,"2014-01-31 15:28:05",0.299,0.09,0,4.915,"2014-01-31 14:28:35",12.54
"2014-02-02 00:00:00",1286,-8.08,-22.79,8.24,"2014-02-01 08:45:05",0.181,0.04,0,8.91,"2014-02-01 08:44:20",12.53
"2014-02-03 00:00:00",1287,-2.11,-24.69,11.71,"2014-02-02 13:29:05",0.167,0.084,0,13.54,"2014-02-02 13:28:45",12.38
"2014-02-04 00:00:00",1288,5.04,-12.63,8.28,"2014-02-03 23:04:05",0.223,0.151,0,9.39,"2014-02-03 23:08:00",12.56
"2014-02-05 00:00:00",1289,-11.06,-24.82,11.77,"2014-02-04 04:43:05",0.112,0.035,0,13.54,"2014-02-04 09:34:10",12.48
"2014-02-06 00:00:00",1290,-21.09,-30.4,7.126,"2014-02-05 19:01:05",0.059,0.023,0,8.27,"2014-02-05 20:18:40",12.3
"2014-02-07 00:00:00",1291,-9.9,-31.83,3.224,"2014-02-06 16:27:05",0.059,0.035,0,3.477,"2014-02-06 16:25:30",12.28
"2014-02-08 00:00:00",1292,-0.245,-27.61,11.27,"2014-02-07 12:52:05",0.187,0.086,0,12.91,"2014-02-07 13:05:25",12.31
"2014-02-09 00:00:00",1293,4.264,-15.4,13.25,"2014-02-08 10:59:05",0.337,0.126,0,15.14,"2014-02-08 16:45:05",12.54
"2014-02-10 00:00:00",1294,-10.59,-18.51,7.485,"2014-02-09 11:44:05",0.16,0.036,0,8.11,"2014-02-09 11:43:15",12.54
"2014-02-11 00:00:00",1295,6.639,-18.51,6.58,"2014-02-10 15:33:05",0.239,0.126,0,7.472,"2014-02-10 15:12:05",12.45
"2014-02-12 00:00:00",1296,3.126,-15.94,12.69,"2014-02-11 15:23:05",0.332,0.128,0,14.82,"2014-02-11 15:22:05",12.53
"2014-02-13 00:00:00",1297,4.135,-11.4,16.81,"2014-02-12 13:48:05",0.428,0.161,0,20.1,"2014-02-12 13:39:10",12.59
"2014-02-14 00:00:00",1298,7.238,-2.545,15.01,"2014-02-13 11:29:05",0.498,0.27,0,18.18,"2014-02-13 11:28:45",12.67
"2014-02-15 00:00:00",1299,5.364,-5.247,13.22,"2014-02-14 16:01:05",0.418,0.264,0,15.62,"2014-02-14 23:57:15",12.66
"2014-02-16 00:00:00",1300,8.05,-1.072,13.78,"2014-02-15 00:16:05",0.564,0.187,0,17.54,"2014-02-15 00:15:35",12.71
"2014-02-17 00:00:00",1301,11.14,-2.002,16.7,"2014-02-16 12:58:05",0.433,0.413,0,18.5,"2014-02-16 12:57:55",12.71
"2014-02-18 00:00:00",1302,7.45,-3.823,15.22,"2014-02-17 05:06:05",0.292,0.421,0,18.34,"2014-02-17 04:28:20",12.7
"2014-02-19 00:00:00",1303,5.627,0.02,13.05,"2014-02-18 05:54:05",0.329,0.402,0,15.94,"2014-02-18 05:23:30",12.73
"2014-02-20 00:00:00",1304,8.52,-6.604,15.29,"2014-02-19 12:45:05",0.365,0.291,0.254,17.54,"2014-02-19 12:44:50",12.71
"2014-02-21 00:00:00",1305,0.292,-8.36,14.53,"2014-02-20 19:40:05",0.194,0.261,0,17.22,"2014-02-20 19:39:55",12.64
"2014-02-22 00:00:00",1306,4.753,-8.15,16.35,"2014-02-21 13:57:05",0.273,0.266,0,18.82,"2014-02-21 13:56:55",12.65
"2014-02-23 00:00:00",1307,-1.649,-10.93,7.299,"2014-02-22 03:34:05",0.291,0.084,0,8.27,"2014-02-22 03:23:05",12.63
"2014-02-24 00:00:00",1308,2.598,-10.66,7.166,"2014-02-23 23:59:05",0.301,0.112,0,8.59,"2014-02-23 23:58:00",12.6
"2014-02-25 00:00:00",1309,8.73,-14.04,11.59,"2014-02-24 11:59:05",0.278,0.217,0,12.91,"2014-02-24 11:57:20",12.61
"2014-02-26 00:00:00",1310,-9.49,-31.62,9.6,"2014-02-25 09:05:05",0.152,0.046,1.016,11.79,"2014-02-25 08:59:50",12.4
"2014-02-27 00:00:00",1311,7.669,-32.17,3.118,"2014-02-26 13:00:05",0.153,0.102,0,3.317,"2014-02-26 12:59:00",12.19
"2014-02-28 00:00:00",1312,8.66,-18.11,7.259,"2014-02-27 14:55:05",0.403,0.171,0,8.91,"2014-02-27 14:52:15",12.43
"2014-03-01 00:00:00",1313,2.869,-14.86,9.74,"2014-02-28 23:51:05",0.351,0.09,0.254,11.47,"2014-02-28 23:16:10",12.59
"2014-03-02 00:00:00",1314,-14.52,-20.89,12.05,"2014-03-01 07:26:05",0.109,0.035,0,14.18,"2014-03-01 08:45:15",12.44
"2014-03-03 00:00:00",1315,3.542,-19.19,6.274,"2014-03-02 23:58:05",0.208,0.098,0,7.952,"2014-03-02 23:58:00",12.4
"2014-03-04 00:00:00",1316,7.569,-0.047,11.68,"2014-03-03 10:15:05",0.521,0.261,0,13.54,"2014-03-03 10:14:50",12.62
"2014-03-05 00:00:00",1317,9,-1.934,7.858,"2014-03-04 04:23:05",0.543,0.22,0,9.23,"2014-03-04 04:05:00",12.67
"2014-03-06 00:00:00",1318,8.98,-4.568,10.77,"2014-03-05 13:02:05",0.488,0.268,0,12.43,"2014-03-05 17:04:05",12.61
"2014-03-07 00:00:00",1319,12.64,1.566,13.17,"2014-03-06 15:01:05",0.517,0.43,0,16.26,"2014-03-06 15:00:50",12.68
"2014-03-08 00:00:00",1320,9.89,-0.991,4.902,"2014-03-07 04:50:05",0.58,0.106,1.27,6.194,"2014-03-07 04:42:10",12.67
"2014-03-09 00:00:00",1321,9.39,-3.484,8.92,"2014-03-08 13:14:05",0.494,0.287,0,10.67,"2014-03-08 13:13:55",12.64
"2014-03-10 00:00:00",1322,11.49,0.97,12.67,"2014-03-09 17:55:05",0.399,0.598,0,15.14,"2014-03-09 17:40:30",12.68
"2014-03-11 00:00:00",1323,15.73,1.905,12.75,"2014-03-10 12:11:05",0.443,0.705,0,15.3,"2014-03-10 12:11:00",12.7
"2014-03-12 00:00:00",1324,4.806,-9.43,12.69,"2014-03-11 09:09:05",0.395,0.133,1.016,15.78,"2014-03-11 07:42:05",12.67
"2014-03-13 00:00:00",1325,7.132,-11.87,8.94,"2014-03-12 14:51:05",0.35,0.223,0,10.03,"2014-03-12 14:38:20",12.52
"2014-03-14 00:00:00",1326,10.61,-4.432,10.67,"2014-03-13 13:36:05",0.386,0.372,0,12.75,"2014-03-13 13:38:05",12.63
"2014-03-15 00:00:00",1327,11.21,-6.802,11.72,"2014-03-14 14:06:05",0.365,0.439,0,14.34,"2014-03-14 11:59:55",12.6
"2014-03-16 00:00:00",1328,6.498,-4.636,12.21,"2014-03-15 04:26:05",0.438,0.244,0,14.18,"2014-03-15 04:24:50",12.69
"2014-03-17 00:00:00",1329,12.5,-6.461,10.73,"2014-03-16 13:06:05",0.379,0.459,0,13.22,"2014-03-16 13:33:30",12.59
"2014-03-18 00:00:00",1330,12.16,-2.816,17.97,"2014-03-17 13:45:05",0.377,0.507,0.254,21.21,"2014-03-17 13:47:20",12.7
"2014-03-19 00:00:00",1331,1.228,-6.736,14.92,"2014-03-18 02:47:05",0.406,0.103,0.254,17.06,"2014-03-18 02:46:45",12.65
"2014-03-20 00:00:00",1332,3.533,-10.45,12.68,"2014-03-19 13:27:05",0.321,0.231,0,14.5,"2014-03-19 13:33:05",12.56
"2014-03-21 00:00:00",1333,10.47,-6.87,15.73,"2014-03-20 14:31:05",0.319,0.442,0,18.66,"2014-03-20 14:54:35",12.6
"2014-03-22 00:00:00",1334,6.907,-5.179,9.52,"2014-03-21 23:35:05",0.302,0.277,0,11.47,"2014-03-21 22:19:15",12.64
"2014-03-23 00:00:00",1335,-2.816,-9.98,9.38,"2014-03-22 01:50:05",0.291,0.08,0,10.99,"2014-03-22 01:10:45",12.6
"2014-03-24 00:00:00",1336,9.05,-10.65,11.56,"2014-03-23 11:48:05",0.289,0.32,0,13.07,"2014-03-23 10:40:00",12.52
"2014-03-25 00:00:00",1337,6.904,-10.74,7.938,"2014-03-24 19:37:05",0.338,0.234,0,9.39,"2014-03-24 14:04:00",12.61
"2014-03-26 00:00:00",1338,15.12,-7.883,10.46,"2014-03-25 13:49:05",0.361,0.472,0,11.95,"2014-03-25 13:48:25",12.58
"2014-03-27 00:00:00",1339,14.32,-5.111,13.54,"2014-03-26 12:39:05",0.445,0.429,0.508,18.34,"2014-03-26 12:38:55",12.62
"2014-03-28 00:00:00",1340,8.38,-1.737,12.85,"2014-03-27 15:40:05",0.479,0.255,1.016,15.3,"2014-03-27 15:39:35",12.68
"2014-03-29 00:00:00",1341,8.85,-3.618,9.59,"2014-03-28 10:41:05",0.31,0.457,0,10.51,"2014-03-28 17:48:15",12.64
"2014-03-30 00:00:00",1342,15.32,-0.454,15.82,"2014-03-29 13:46:05",0.366,0.711,0,18.66,"2014-03-29 13:45:30",12.7
"2014-03-31 00:00:00",1343,16.06,-2.286,15.25,"2014-03-30 14:08:05",0.47,0.55,4.572,18.18,"2014-03-30 14:07:30",12.69
"2014-04-01 00:00:00",1344,8.61,-4.509,9.48,"2014-03-31 01:28:05",0.441,0.174,0.762,11.79,"2014-03-31 01:26:55",12.67
"2014-04-02 00:00:00",1345,5.89,-2.273,5.781,"2014-04-01 18:23:05",0.562,0.119,0.254,6.833,"2014-04-01 18:20:25",12.67
"2014-04-03 00:00:00",1346,7.371,-3.154,8.26,"2014-04-02 14:29:05",0.426,0.284,1.27,10.67,"2014-04-02 14:15:00",12.66
"2014-04-04 00:00:00",1347,7.713,-6.599,8.34,"2014-04-03 13:24:05",0.363,0.274,0,9.87,"2014-04-03 13:16:15",12.62
"2014-04-05 00:00:00",1348,9.73,-7.747,10.95,"2014-04-04 12:34:05",0.364,0.371,0,13.07,"2014-04-04 12:33:30",12.6
"2014-04-06 00:00:00",1349,11.35,-1.866,7.126,"2014-04-05 13:19:05",0.411,0.46,0,8.43,"2014-04-05 13:18:35",12.67
"2014-04-07 00:00:00",1350,12.7,-4.161,11.72,"2014-04-06 15:43:05",0.427,0.381,0,13.54,"2014-04-06 15:40:45",12.66
"2014-04-08 00:00:00",1351,12.5,-2.409,9.32,"2014-04-07 14:54:05",0.435,0.379,0.508,11.31,"2014-04-07 14:31:25",12.69
"2014-04-09 00:00:00",1352,20.58,-4.84,9.08,"2014-04-08 15:40:05",0.408,0.797,0,10.51,"2014-04-08 14:27:55",12.65
"2014-04-10 00:00:00",1353,20.1,0.696,13.72,"2014-04-09 14:02:05",0.453,0.922,0,16.26,"2014-04-09 13:05:35",12.74
"2014-04-11 00:00:00",1354,17.55,-1.664,10.84,"2014-04-10 13:43:05",0.519,0.536,0,12.75,"2014-04-10 13:42:40",12.7
"2014-04-12 00:00:00",1355,20.78,-3.551,14.7,"2014-04-11 14:12:05",0.459,0.942,0,18.5,"2014-04-11 14:11:05",12.68
"2014-04-13 00:00:00",1356,16.2,-1.608,11.03,"2014-04-12 21:46:05",0.587,0.465,0.508,13.38,"2014-04-12 22:04:05",12.75
"2014-04-14 00:00:00",1357,-1.336,-10.32,12.88,"2014-04-13 09:37:05",0.322,0.062,0,15.14,"2014-04-13 07:12:45",12.66
"2014-04-15 00:00:00",1358,6.568,-14.45,8.92,"2014-04-14 13:50:05",0.263,0.278,0,11.47,"2014-04-14 13:43:20",12.53
"2014-04-16 00:00:00",1359,14.86,-3.146,13.77,"2014-04-15 13:14:05",0.341,0.647,0,16.9,"2014-04-15 17:50:15",12.65
"2014-04-17 00:00:00",1360,10.27,-2.274,8.16,"2014-04-16 10:03:05",0.43,0.352,0,12.11,"2014-04-16 10:02:10",12.69
"2014-04-18 00:00:00",1361,16.6,-7.413,10.42,"2014-04-17 16:01:05",0.4,0.635,0,11.95,"2014-04-17 15:52:45",12.63
"2014-04-19 00:00:00",1362,23.33,2.99,15.77,"2014-04-18 14:04:05",0.465,1.105,0,18.82,"2014-04-18 14:03:15",12.74
"2014-04-20 00:00:00",1363,20.17,-2.008,11.96,"2014-04-19 13:34:05",0.502,0.868,0,14.5,"2014-04-19 13:33:50",12.71
"2014-04-21 00:00:00",1364,21.98,-2.477,8.95,"2014-04-20 19:47:05",0.495,0.915,0,11.31,"2014-04-20 13:47:45",12.7
"2014-04-22 00:00:00",1365,21.18,-1.803,6.607,"2014-04-21 13:07:05",0.431,0.835,0,7.632,"2014-04-21 16:16:00",12.7
"2014-04-23 00:00:00",1366,22.4,-0.251,12.85,"2014-04-22 13:11:05",0.497,1.081,0,15.46,"2014-04-22 13:10:15",12.71
"2014-04-24 00:00:00",1367,11.21,-0.047,13.4,"2014-04-23 11:28:05",0.34,0.687,0,19.14,"2014-04-23 11:26:35",12.77
"2014-04-25 00:00:00",1368,16.13,-6.061,14.1,"2014-04-24 14:54:05",0.343,0.705,0,16.42,"2014-04-24 14:53:40",12.65
"2014-04-26 00:00:00",1369,19.63,-2.555,8.48,"2014-04-25 12:14:05",0.376,1.022,0,12.59,"2014-04-25 12:13:40",12.68
"2014-04-27 00:00:00",1370,16.4,2.651,13.25,"2014-04-26 00:16:05",0.627,0.598,1.778,15.46,"2014-04-26 00:11:10",12.74
"2014-04-28 00:00:00",1371,10.01,0.224,10.49,"2014-04-27 10:08:05",0.56,0.283,0,12.43,"2014-04-27 11:46:50",12.72
"2014-04-29 00:00:00",1372,8.46,-2.138,11.72,"2014-04-28 08:32:05",0.402,0.357,0,17.22,"2014-04-28 14:35:55",12.65
"2014-04-30 00:00:00",1373,8.93,-0.454,14.65,"2014-04-29 12:33:05",0.429,0.36,0,16.74,"2014-04-29 12:32:30",12.68
"2014-05-01 00:00:00",1374,9.87,-3.562,9.5,"2014-04-30 08:28:05",0.368,0.452,0,11.47,"2014-04-30 08:15:00",12.67